#timestamp,LO_Frequency,Hit 
1504825215.8,286047004.1,N
1504825235.6,286047002.9,N
1504825255.4,286047005.0,N
1504825275.3,286047005.1,N
1504825295.1,286047006.5,P
1504825315.9,286047003.9,P
1504825335.7,286047001.4,N
1504825355.5,286047001.4,N
1504825375.3,286047004.5,N
1504825395.2,286047004.0,N
1504825415.0,286047000.2,N
1504825415.9,286047000.2,N
1504825435.7,286047002.8,N
1504825455.6,286047003.2,N
1504825475.4,286047005.8,P
1504825495.2,286047002.6,N
1504825515.1,286047003.0,N
1504825516.0,286047003.0,N
1504825535.8,286047003.2,N
1504825555.7,286047005.9,P
1504825575.5,286047002.7,N
1504825595.3,286047002.8,N
1504825615.1,286047001.6,N
1504825635.9,286047003.7,N
1504825655.7,286047000.6,N
1504825675.5,286047000.7,N
1504825695.4,286047000.1,N
1504825715.2,286047002.2,N
1504825735.0,286047002.7,N
1504825735.9,286047002.7,N
1504825755.8,286047002.2,N
1504825775.6,286047000.6,N
1504825795.4,286047001.5,N
1504825815.3,286047000.5,N
1504825835.1,286046998.2,N
1504825836.0,286046998.2,N
1504825855.8,286046998.1,N
1504825875.7,286046996.5,N
1504825895.5,286047000.1,N
1504825915.3,286047000.1,N
1504825935.2,286047000.8,N
1504825955.9,286046999.1,N
1504825975.7,286046998.7,N
1504825995.5,286047001.8,N
1504826015.4,286047003.8,N
1504826035.2,286047003.5,N
1504826055.0,286047005.3,N
1504826055.9,286047005.3,N
1504826075.8,286047002.9,N
1504826095.6,286047001.6,N
1504826115.4,286047000.0,N
1504826135.3,286047004.1,N
1504826155.1,286047004.1,N
1504826156.0,286047004.1,N
1504826175.8,286047004.4,N
1504826195.7,286047002.2,N
1504826215.5,286047004.0,N
1504826235.3,286047007.1,P
1504826255.2,286047003.3,N
1504826275.9,286047007.1,P
1504826295.7,286047006.7,N
1504826315.6,286047007.0,P
1504826335.4,286046998.9,N
1504826355.2,286047001.0,N
1504826375.1,286047000.7,N
1504826376.0,286047000.7,N
1504826395.8,286046999.9,N
1504826415.6,286047001.6,N
1504826435.5,286047004.4,N
1504826455.3,286047003.9,N
1504826475.1,286047004.0,N
1504826495.9,286047000.0,N
1504826515.7,286047000.3,N
1504826535.5,286047002.2,N
1504826555.3,286047000.4,N
1504826575.2,286046998.9,N
1504826595.0,286047000.5,N
1504826595.9,286047000.5,N
1504826615.7,286047002.4,N
1504826635.6,286047002.8,N
1504826655.4,286047001.8,N
1504826675.2,286047001.4,N
1504826695.1,286047003.5,N
1504826696.0,286047003.5,N
1504826715.8,286047002.9,N
1504826735.6,286047002.9,N
1504826755.5,286047003.8,N
1504826775.3,286047004.3,N
1504826795.1,286047005.4,N
1504826815.9,286047008.2,P
1504826835.7,286047006.4,N
1504826855.5,286047003.6,N
1504826875.4,286047003.6,N
1504826895.2,286047006.0,N
1504826915.0,286047004.5,N
1504826915.9,286047004.5,N
1504826935.8,286047010.4,P
1504826955.6,286047005.0,N
1504826975.4,286047008.7,P
1504826995.3,286047004.6,N
1504827015.1,286047004.8,N
1504827016.0,286047004.8,N
1504827035.8,286047002.4,N
1504827055.7,286047005.8,N
1504827075.5,286047001.7,N
1504827095.3,286047001.5,N
1504827115.1,286047001.7,N
1504827135.9,286047006.4,N
1504827155.7,286047005.0,N
1504827175.5,286047004.2,N
1504827195.4,286047000.9,N
1504827215.2,286046998.7,N
1504827235.0,286046999.7,N
1504827235.9,286046999.7,N
1504827255.8,286047000.5,N
1504827275.6,286047002.3,N
1504827295.4,286047007.5,N
1504827315.3,286047004.5,N
1504827335.1,286047007.1,N
1504827336.0,286047007.1,N
1504827355.8,286047006.2,N
1504827375.6,286047005.6,N
1504827395.5,286047001.5,N
1504827415.3,286047004.1,N
1504827435.1,286047002.9,N
1504827455.9,286047007.4,N
1504827475.7,286047005.2,N
1504827495.5,286047001.7,N
1504827515.4,286047003.2,N
1504827535.2,286047005.6,N
1504827555.0,286047008.4,P
1504827555.9,286047008.4,P
1504827575.8,286047003.5,N
1504827595.6,286047000.3,N
1504827615.4,286046999.5,N
1504827635.3,286046999.4,N
1504827655.1,286046999.4,N
1504827675.8,286047000.3,N
1504827695.7,286046999.9,N
1504827715.5,286047005.5,N
1504827735.3,286047003.1,N
1504827755.2,286047002.3,N
1504827775.9,286047001.0,N
1504827795.7,286047000.2,N
1504827815.6,286047002.8,N
1504827835.4,286046998.4,N
1504827855.2,286047000.4,N
1504827875.0,286047003.0,N
1504827875.9,286047003.0,N
1504827895.8,286047002.3,N
1504827915.6,286047002.6,N
1504827935.4,286047001.6,N
1504827955.3,286047002.2,N
1504827975.1,286047005.5,N
1504827995.8,286047004.4,N
1504828015.7,286047005.3,N
1504828035.5,286047004.5,N
1504828055.3,286047007.6,N
1504828075.2,286047005.2,N
1504828095.9,286047008.8,P
1504828115.7,286047004.0,N
1504828135.6,286047000.0,N
1504828155.4,286047002.1,N
1504828175.2,286047002.8,N
1504828195.1,286047001.0,N
1504828196.0,286047001.0,N
1504828215.8,286047000.4,N
1504828235.6,286047002.2,N
1504828255.5,286047003.1,N
1504828275.3,286047004.5,N
1504828295.1,286047009.7,P
1504828315.9,286047012.1,P
1504828335.7,286047004.5,N
1504828355.5,286047006.2,N
1504828375.3,286047007.9,N
1504828395.2,286047013.9,P
1504828415.0,286047001.7,N
1504828415.9,286047001.7,N
1504828435.8,286047001.4,N
1504828455.6,286047002.7,N
1504828475.4,286047003.9,N
1504828495.2,286047010.4,N
1504828515.1,286047008.4,N
1504828516.0,286047008.4,N
1504828535.8,286047005.9,N
1504828555.6,286047001.8,N
1504828575.5,286047001.7,N
1504828595.3,286047005.3,N
1504828615.1,286047007.5,N
1504828635.9,286047007.8,N
1504828655.7,286047007.1,N
1504828675.5,286047005.1,N
1504828695.4,286047004.0,N
1504828715.2,286047006.6,N
1504828735.0,286047015.2,P
1504828735.9,286047015.2,P
1504828755.8,286047010.8,N
1504828775.6,286047009.4,N
1504828795.4,286047012.4,P
